Location: *
(33.8649°S, 62.1526°E)
Time: 13:11:48
(UTC+00:00)

Cosmos 2123 Rocket - Pass Details

Date: 17 January 2021
Orbit: 962 x 991 km, 82.9° (Epoch: 02 March)

Event Time Altitude Azimuth Distance (km) Brightness Sun altitude
Exits shadow 23:10:05 24° 351° (N) 1,901 5.1 -19.5°
Maximum altitude 23:14:03 84° 265° (W) 1,001 4.0 -18.9°
Drops below altitude 10° 23:20:24 10° 176° (S) 2,754 7.0 -17.9°
Sets 23:22:56 0° 174° (S) 3,704 7.8 -17.5°
